METAR LOCAUX

2020/08/05 10:00 LFST 051000Z AUTO 06005KT 340V150 CAVOK 24/13 Q1018 NOSIG
2020/08/05 09:50 EDSB 050950Z 33006KT 280V020 CAVOK 23/11 Q1018
2020/08/05 10:00 LFGA 051000Z AUTO VRB03KT CAVOK 23/10 Q1018
www.noaa.gov

Ne pas utiliser pour préparer ou effectuer un vol: Utilisez la documentation officielle disponible sur aviation.meteo.fr (Aéroweb)


"Le soleil du matin ne dure pas forcément toute la journée."

Animation satellite IR

Meteociel.fr

"Derrière chaque nuage se cache le ciel bleu."

Radar pluie

Infoclimat.fr

"Si tu veux l’arc-en-ciel, tu dois supporter la pluie."
Dolly Parton

Nébulosité (octas)

Meteociel.fr

"Le soleil est souvent obscurci par les nuages et la raison par les passions."
Démophile

Impacts de foudre

www.meteo60.fr

"Celui que frappe la foudre n'entend pas le tonnerre."

Vigilance météo

vigilance-meteo.fr

"Tout nuage n'enfante pas une tempête."
William Shakespeare

TAF locaux

2020/08/05 06:21 TAF TAF LFST 050500Z 0506/0606 VRB03KT CAVOK BECMG 0510/0512 08006KT BECMG 0520/0522 VRB04KT
2020/08/05 06:27 TAF EDSB 050500Z 0506/0606 VRB03KT CAVOK BECMG 0508/0510 03007KT BECMG 0518/0521 VRB03KT
www.noaa.gov

Ne pas utiliser pour préparer ou effectuer un vol: Utilisez la documentation officielle disponible sur aviation.meteo.fr (Aéroweb)


"Les jours où le ciel est gris, le soleil n'a pas disparu à tout jamais."
Arnaud Desjardins

Prévisions 7 jours


Meteoblue.com

"Quand les crapauds chantent, le beau temps s'avance !"